GFSNIL_sfc_30mbdewp_090.txt.gz
Dewpoint
61 61 61 61 60 60 60 60 61 61 61 61 59 57 56 55 54 54 53 52 51 50
52 57 58 59 60 60 60 58 58 59 58 56 55 54 52 50 48 48 49 48 48 47
45 46 49 53 55 57 57 55 55 53 51 50 49 47 47 46 45 45 45 46 46 46
46 47 47 49 52 54 54 53 51 49 48 46 45 45 44 44 43 43 43 43 43 43
46 47 47 47 49 50 51 50 49 47 45 44 43 42 42 41 41 41 41 41 41 41
46 46 46 46 46 47 47 47 46 45 43 42 42 41 41 40 39 39 40 40 40 40
45 45 45 45 44 44 44 43 43 42 41 41 40 40 39 39 39 39 38 39 39 39
45 45 44 43 43 43 42 42 41 40 40 40 39 39 39 39 38 38 38 38 39 39
43 44 44 43 42 41 41 40 40 40 39 39 38 39 39 39 38 38 38 38 38 39
42 43 44 43 41 41 40 40 40 39 39 39 39 40 41 40 39 39 39 38 38 39
41 42 43 42 41 41 40 40 40 39 39 39 39 40 40 40 40 39 37 38 38 38
42 42 43 42 41 41 40 40 40 39 39 39 39 39 40 40 39 38 37 37 37 37
41 42 42 43 42 41 40 40 39 39 39 38 39 39 39 39 38 36 35 36 35 36
40 41 42 42 42 41 40 39 38 38 38 38 38 38 39 39 37 37 35 35 34 34

GFSNIL_sfc_30mbdewp_093.txt.gz
Dewpoint
60 59 59 58 59 59 59 61 62 62 62 63 62 62 61 59 58 58 58 57 54 53
58 60 60 61 61 61 61 61 61 61 61 62 61 60 58 57 56 55 55 53 52 50
45 46 48 52 56 58 59 59 58 59 59 59 58 57 55 53 50 50 49 49 48 48
46 46 47 47 49 52 56 56 56 55 55 54 52 51 50 48 46 46 46 46 45 45
46 46 46 46 48 51 52 54 53 51 50 49 47 47 45 44 44 43 43 43 43 43
45 46 46 46 46 48 50 51 50 49 47 45 45 44 44 43 43 42 42 42 41 41
44 45 46 46 45 45 46 47 47 47 45 44 43 42 42 41 40 40 40 40 40 40
41 44 45 45 45 44 44 44 44 43 43 42 41 41 40 40 40 40 39 39 39 40
41 42 44 45 44 43 43 43 42 41 41 41 39 39 40 40 39 39 39 39 39 39
42 42 43 44 44 43 42 42 41 41 40 40 40 39 40 40 40 39 39 39 39 39
41 42 42 43 44 43 43 42 42 41 40 40 40 41 41 41 41 40 40 40 39 39
41 41 42 42 44 44 43 42 42 42 41 40 40 41 41 42 40 39 38 38 38 38
40 41 41 43 43 44 44 43 42 41 41 41 40 40 41 41 39 38 37 37 36 37
39 40 40 41 43 43 43 42 41 40 39 40 39 40 40 40 39 38 36 36 36 36

GFSNIL_sfc_30mbdewp_099.txt.gz
Dewpoint
58 58 58 59 59 59 59 59 60 61 61 62 61 61 61 60 60 60 58 58 58 57
59 59 59 60 59 59 59 60 60 59 59 60 61 61 61 60 60 60 59 58 57 56
50 51 52 53 58 59 59 59 60 60 59 60 61 61 61 61 60 59 59 58 57 55
47 47 47 47 49 52 55 57 58 58 59 60 60 60 60 59 57 57 56 55 55 53
46 46 46 46 47 48 50 53 54 54 55 56 57 57 56 55 54 54 53 52 51 50
43 45 45 46 45 46 47 50 51 52 52 52 52 52 52 52 51 50 50 49 48 47
41 42 44 45 45 45 45 46 48 49 49 48 47 48 48 47 47 47 46 46 46 45
42 42 42 44 45 45 44 44 44 45 46 45 45 45 45 45 44 44 43 44 44 43
41 42 42 43 43 44 44 43 43 43 43 43 43 42 43 42 42 42 41 41 41 41
41 41 41 42 42 43 43 43 43 42 42 41 41 42 42 42 40 40 40 39 39 39
40 40 41 41 41 41 42 43 43 42 42 41 41 42 42 42 40 39 39 39 39 39
38 38 39 39 40 40 41 42 43 43 42 41 41 41 42 42 40 39 39 39 39 39
36 37 37 38 38 39 39 40 42 43 43 43 42 42 42 42 40 39 39 39 39 40
33 34 35 36 37 38 36 38 39 40 42 42 42 42 42 43 41 39 39 38 38 38

GFSNIL_sfc_30mbdewp_105.txt.gz
Dewpoint
59 58 59 59 59 59 58 59 60 60 60 60 60 60 60 60 59 59 58 58 58 58
58 59 58 59 59 59 59 60 60 59 59 60 60 60 60 59 59 59 59 58 58 58
52 55 56 57 56 58 59 60 59 59 60 60 60 59 59 59 59 59 59 59 58 58
50 50 51 51 51 53 55 55 57 59 59 59 59 58 58 59 59 59 59 59 59 58
45 46 46 46 46 46 47 49 51 52 53 54 56 58 58 58 58 58 58 58 57 57
42 43 44 44 44 45 44 44 45 47 48 49 50 51 52 54 55 55 55 56 55 55
41 41 42 42 43 44 44 44 43 44 44 45 46 47 47 48 49 50 51 52 52 53
40 40 40 41 41 41 42 42 43 43 43 43 43 43 44 44 45 45 46 47 48 49
38 39 39 40 40 40 39 40 40 41 42 42 42 43 43 43 43 42 43 43 44 45
36 35 37 38 39 38 38 38 38 38 39 39 41 43 44 44 43 42 41 41 41 42
34 32 34 36 36 36 37 37 37 37 38 38 39 41 43 44 43 42 41 40 40 40
33 31 32 33 34 34 34 33 34 37 37 37 38 40 41 42 43 42 42 41 40 39
32 31 29 31 33 33 33 33 34 32 32 34 36 37 38 39 40 40 41 41 40 40
29 29 28 30 31 32 31 31 31 30 29 30 33 35 35 36 38 39 40 39 39 40